Weather History for Willmar, MN

Change the Weather History Date:

Wednesday, September 18, 2013

  Actual Average (KLJF) Record (KLJF)
Temperature  
Mean Temperature 70 °F -  
Max Temperature 82 °F 73 °F 90 °F (1955)
Min Temperature 59 °F 49 °F 34 °F (1971)
Cooling Degree Days 6    
Growing Degree Days 20 (Base 50)    
Moisture  
Dew Point 65 °F    
Average Humidity 83    
Maximum Humidity 94    
Minimum Humidity 58    
Precipitation  
Precipitation 0.00 in - - ()
Sea Level Pressure  
Sea Level Pressure 29.75 in    
Wind  
Wind Speed 9 mph (SE)    
Max Wind Speed 15 mph    
Max Gust Speed 20 mph    
Visibility 5 miles    
Events Fog , Rain    
Averages and records for this station are not official NWS values.
T = Trace of Precipitation, MM = Missing Value Source: NWS Daily Summary

Daily Weather History Graph

Daily Weather History Graph

Search for Another Location

Airport:

Trip Planner

Search our weather history database for the weather conditions in past years. The results will help you decide how hot, cold, wet, or windy it might be!

Date:

Astronomy

Sep. 18, 2013 Rise Set
Actual Time 7:03 AM CDT 7:25 PM CDT
Civil Twilight 6:33 AM CDT 7:54 PM CDT
Nautical Twilight 5:58 AM CDT 8:29 PM CDT
Astronomical Twilight 5:22 AM CDT 9:04 PM CDT
Moon 6:47 PM CDT 6:05 AM CDT
Length of Visible Light 13h 20m
Length of Day
12h 22m
Waxing Gibbous, 99% of the Moon is Illuminated
Sep 18
Waxing Gibbous
Sep 19
Full
Sep 26
Last Quarter
Oct 4
New
Oct 11
First Quarter

Hourly Weather History & Observations

Time (CDT) Temp. Heat Index Dew Point Humidity Pressure Visibility Wind Dir Wind Speed Gust Speed Precip Events Conditions
12:15 AM 59.0 °F - 57.2 °F 94% 29.90 in 1.8 mi SE 8.1 mph - N/A   Overcast
12:35 AM 59.0 °F - 57.2 °F 94% 29.89 in 1.8 mi SE 9.2 mph - N/A Rain Rain
12:56 AM 60.8 °F - 57.2 °F 88% 29.88 in 3.0 mi SE 8.1 mph - N/A   Overcast
1:15 AM 60.8 °F - 57.2 °F 88% 29.88 in 4.0 mi SE 8.1 mph - N/A   Overcast
1:35 AM 60.8 °F - 57.2 °F 88% 29.88 in 4.0 mi SSE 6.9 mph - N/A   Overcast
1:56 AM 60.8 °F - 57.2 °F 88% 29.87 in 4.0 mi SE 9.2 mph - N/A   Overcast
2:15 AM 60.8 °F - 57.2 °F 88% 29.86 in 3.0 mi SSE 8.1 mph - N/A   Overcast
2:36 AM 60.8 °F - 59.0 °F 94% 29.86 in 3.0 mi SSE 11.5 mph 17.3 mph N/A   Overcast
2:55 AM 60.8 °F - 59.0 °F 94% 29.85 in 2.0 mi SSE 9.2 mph - N/A   Overcast
3:15 AM 62.6 °F - 59.0 °F 88% 29.85 in 1.5 mi SSE 8.1 mph - N/A   Overcast
3:35 AM 62.6 °F - 59.0 °F 88% 29.83 in 1.0 mi SSE 8.1 mph - N/A   Overcast
3:55 AM 62.6 °F - 60.8 °F 94% 29.83 in 0.8 mi SSE 6.9 mph - N/A   Overcast
4:15 AM 62.6 °F - 60.8 °F 94% 29.82 in 0.5 mi SE 9.2 mph - N/A Fog Fog
4:35 AM 62.6 °F - 60.8 °F 94% 29.81 in 0.5 mi SE 5.8 mph - N/A Rain Light Rain
4:55 AM 62.6 °F - 60.8 °F 94% 29.81 in 0.8 mi SSE 6.9 mph - N/A   Light Drizzle
5:15 AM 62.6 °F - 60.8 °F 94% 29.80 in 0.8 mi SE 8.1 mph - N/A   Light Drizzle
5:35 AM 62.6 °F - 60.8 °F 94% 29.79 in 0.8 mi SE 9.2 mph - N/A   Light Drizzle
5:55 AM 62.6 °F - 60.8 °F 94% 29.79 in 0.8 mi SE 9.2 mph - N/A   Light Drizzle
6:15 AM 62.6 °F - 60.8 °F 94% 29.79 in 1.0 mi SE 6.9 mph - N/A   Light Drizzle
6:35 AM 64.4 °F - 60.8 °F 88% 29.79 in 1.2 mi SE 6.9 mph - N/A   Overcast
6:55 AM 64.4 °F - 62.6 °F 94% 29.78 in 1.0 mi SE 9.2 mph - N/A   Light Drizzle
7:15 AM 64.4 °F - 62.6 °F 94% 29.78 in 1.2 mi SE 8.1 mph - N/A Rain Light Rain
7:35 AM 64.4 °F - 62.6 °F 94% 29.78 in 1.5 mi SE 8.1 mph - N/A   Drizzle
7:55 AM 66.2 °F - 62.6 °F 88% 29.79 in 1.0 mi SE 6.9 mph - N/A   Overcast
8:15 AM 66.2 °F - 64.4 °F 94% 29.79 in 1.0 mi SE 8.1 mph - N/A Rain Light Rain
8:35 AM 66.2 °F - 64.4 °F 94% 29.79 in 1.2 mi SSE 6.9 mph - N/A   Overcast
8:55 AM 66.2 °F - 64.4 °F 94% 29.79 in 1.5 mi SSE 8.1 mph - N/A   Overcast
9:16 AM 68.0 °F - 66.2 °F 94% 29.79 in 1.5 mi SSE 6.9 mph - N/A   Overcast
9:35 AM 68.0 °F - 66.2 °F 94% 29.79 in 1.8 mi SSE 10.4 mph - N/A   Overcast
9:55 AM 69.8 °F - 66.2 °F 88% 29.78 in 2.0 mi SSE 10.4 mph - N/A   Overcast
10:15 AM 69.8 °F - 66.2 °F 88% 29.77 in 2.5 mi SSE 11.5 mph 16.1 mph N/A   Mostly Cloudy
10:35 AM 69.8 °F - 66.2 °F 88% 29.77 in 3.0 mi SSE 8.1 mph - N/A   Mostly Cloudy
10:55 AM 71.6 °F - 66.2 °F 83% 29.77 in 4.0 mi SSE 11.5 mph 17.3 mph N/A   Haze
11:16 AM 71.6 °F - 66.2 °F 83% 29.76 in 4.0 mi SE 11.5 mph - N/A   Haze
11:35 AM 71.6 °F - 66.2 °F 83% 29.75 in 4.0 mi SSE 10.4 mph 16.1 mph N/A   Haze
11:55 AM 73.4 °F - 66.2 °F 78% 29.74 in 5.0 mi SSE 13.8 mph 18.4 mph N/A   Haze
12:15 PM 73.4 °F - 66.2 °F 78% 29.73 in 5.0 mi SE 10.4 mph 16.1 mph N/A   Haze
12:35 PM 73.4 °F - 66.2 °F 78% 29.73 in 5.0 mi SSE 10.4 mph 18.4 mph N/A   Haze
12:55 PM 73.4 °F - 66.2 °F 78% 29.73 in 5.0 mi SSE 12.7 mph 16.1 mph N/A   Haze
1:16 PM 73.4 °F - 66.2 °F 78% 29.73 in 5.0 mi SSE 9.2 mph 18.4 mph N/A   Haze
1:35 PM 73.4 °F - 66.2 °F 78% 29.73 in 5.0 mi SSE 15.0 mph 19.6 mph N/A   Haze
1:55 PM 73.4 °F - 66.2 °F 78% 29.72 in 5.0 mi SSE 15.0 mph - N/A   Haze
2:15 PM 73.4 °F - 66.2 °F 78% 29.71 in 7.0 mi SSE 12.7 mph - N/A   Overcast
2:35 PM 75.2 °F - 66.2 °F 73% 29.71 in 7.0 mi SSE 11.5 mph 17.3 mph N/A   Overcast
2:55 PM 75.2 °F - 66.2 °F 73% 29.70 in 7.0 mi SE 15.0 mph - N/A   Mostly Cloudy
3:15 PM 78.8 °F - 66.2 °F 65% 29.70 in 7.0 mi SSE 10.4 mph 19.6 mph N/A   Scattered Clouds
3:35 PM 78.8 °F - 66.2 °F 65% 29.69 in 7.0 mi SE 12.7 mph 18.4 mph N/A   Scattered Clouds
3:55 PM 78.8 °F - 66.2 °F 65% 29.69 in 7.0 mi SE 13.8 mph - N/A   Scattered Clouds
4:15 PM 80.6 °F 82.7 °F 66.2 °F 61% 29.68 in 10.0 mi SE 12.7 mph 18.4 mph N/A   Clear
4:35 PM 80.6 °F 83.2 °F 68.0 °F 65% 29.68 in 10.0 mi SE 11.5 mph - N/A   Clear
4:55 PM 82.4 °F 84.6 °F 66.2 °F 58% 29.68 in 10.0 mi SSE 11.5 mph 19.6 mph N/A   Clear
5:15 PM 82.4 °F 84.6 °F 66.2 °F 58% 29.67 in 10.0 mi SSE 12.7 mph 17.3 mph N/A   Clear
5:35 PM 80.6 °F 82.7 °F 66.2 °F 61% 29.67 in 10.0 mi SSE 9.2 mph - N/A   Clear
5:55 PM 80.6 °F 83.2 °F 68.0 °F 65% 29.66 in 10.0 mi SSE 10.4 mph - N/A   Clear
6:15 PM 82.4 °F 85.4 °F 68.0 °F 62% 29.66 in 10.0 mi SE 9.2 mph - N/A   Clear
6:35 PM 80.6 °F 83.9 °F 69.8 °F 70% 29.65 in 10.0 mi SE 9.2 mph - N/A   Clear
6:55 PM 80.6 °F 83.2 °F 68.0 °F 65% 29.65 in 10.0 mi SE 9.2 mph - N/A   Clear
7:15 PM 78.8 °F - 69.8 °F 74% 29.65 in 10.0 mi SE 8.1 mph - N/A   Clear
7:35 PM 77.0 °F - 69.8 °F 78% 29.65 in 10.0 mi SE 8.1 mph - N/A   Clear
7:55 PM 75.2 °F - 69.8 °F 83% 29.65 in 10.0 mi SE 5.8 mph - N/A   Clear
8:15 PM 75.2 °F - 69.8 °F 83% 29.66 in 10.0 mi SE 6.9 mph - N/A   Clear
8:36 PM 75.2 °F - 69.8 °F 83% 29.67 in 10.0 mi SE 5.8 mph - N/A   Clear
8:55 PM 73.4 °F - 69.8 °F 88% 29.68 in 10.0 mi SE 6.9 mph - N/A   Clear
9:15 PM 73.4 °F - 69.8 °F 88% 29.68 in 10.0 mi SE 5.8 mph - N/A   Clear
9:36 PM 73.4 °F - 69.8 °F 88% 29.67 in 10.0 mi ESE 5.8 mph - N/A   Clear
9:55 PM 73.4 °F - 69.8 °F 88% 29.67 in 10.0 mi SE 5.8 mph - N/A   Clear
10:15 PM 73.4 °F - 68.0 °F 83% 29.67 in 10.0 mi SE 4.6 mph - N/A   Clear
10:36 PM 71.6 °F - 68.0 °F 88% 29.67 in 10.0 mi SE 4.6 mph - N/A   Clear
10:55 PM 71.6 °F - 66.2 °F 83% 29.68 in 10.0 mi SE 3.5 mph - N/A   Clear
11:15 PM 71.6 °F - 66.2 °F 83% 29.68 in 7.0 mi SE 4.6 mph - N/A   Clear
11:35 PM 71.6 °F - 68.0 °F 88% 29.68 in 7.0 mi SE 5.8 mph - N/A   Clear
11:55 PM 71.6 °F - 68.0 °F 88% 29.66 in 10.0 mi SE 6.9 mph - N/A   Clear